OBJECT K, 68425

Orbit data source: Space-Track

You're viewing an Uncataloged Satellite

Recently launched and/or uncataloged satellites may have evolving metadata. Metadata may include but not limited to: Owner, Maufacturer, Bus, Motor, and Mission.

OBJECT K, 68425 is a satellite in SSO that was launched on Mon, 30 Mar 2026 UTC via an FALCON 9 launch vehicle from the Air Force Western Test Range (AFWTR). Unknown objects in Earth's orbit typically refer to objects detected orbiting the Earth but have not yet been identified or cataloged. These objects could be anything from previously untracked satellites, spent rocket stages, debris from satellite collisions, or even natural meteoroids temporarily captured by Earth's gravity.

Loading next visibility...
Identifier
68425, 2026-067K
Orbit
SSO
Country
Flag of TBDTBD
Related business
Manufacturer
NKUA
Mission
Operational spacecraft
Bus & Motor
CUBESAT 6U, Unknown motor
Mass
~10 kg wet, ~10 kg dry
Launch date (UTC)
2026-03-30 (2 months ago)
Launch vehicle
FALCON 9
Launch site
Air Force Western Test Range (AFWTR)
Object type
Unknown
Shape & HBR
Unknown shape, 1.1 m
Radar Cross Section
Medium (>0.1 m² and <1 m²)

Expand to show TLE details & history
Last TLE update: 9 hours ago

TLE from 9 hours ago
0 OBJECT K
1 68425U 26067K   26151.12208052  .00006449  00000-0  31495-3 0  9999
2 68425  97.4578 109.9015 0003107  65.2596 294.8961 15.18599987  9354
Epoch: 2026-05-31T02:55Z
TLE epoch observation values (Epoch: 2026-05-31T02:55:47.756Z)
Latitude
-0.00008°
Longitude
177.32423°
Altitude
512.257 km
Speed
7.608 km/s
True Right ascension
07h 19m 36s
True Declination
0° 00' 00"
Sunlit
Object was in daylight at epoch
Visualization orbit readout
Latitude
Unknown
Longitude
Unknown
Altitude
Unknown
Speed
Unknown
Apparent Right ascension
Unknown
Apparent Declination
Unknown
Sunlit
N/A
Visualization observer readout
Local Sidereal Time
21:33:05
Azimuth
Unknown
Elevation
Unknown
Doppler factor
Unknown
Orbital elements
Apogee altitude
509.18 km
Perigee altitude
504.902 km
Semi-major axis
6,885.178 km
Eccentricity
0.00031
Inclination
97.4578°
RAAN
109.9015°
Arg. of periapsis
65.2596°
True anomaly
294.8638°
Mean anomaly
294.8961°
Eccentric anomaly
294.87995°
Mean motion
3.79901 °/min
Orbital period
94.76 mins
BSTAR
0.00031495
Loading maneuver chart data...
Computing Atmospheric mass density...
Loading historical data...
Loading historical data...
Loading historical data...
Loading historical data...
Loading historical data...
Loading historical data...
Loading historical data...

Documentation

Showing up to 5 results
|